Content
SEND FEEDBACK

Daily
Averages
Monthly
Summary
Philippines

QUEZON CITY, PHILIPPINES


Home > Asia > Philippines
Elevation: 46 meters     Latitude: 14 39N     Longitude: 121 03E

WEATHER
 
SELECT A DAY
Number of Records: 172,299;   Date Range: 7/1/96 - 7/7/14
 
SHARE

PRINT THIS DATA

[ ← Previous Day ]
WEATHER ALMANAC - 15 OCTOBER, 2013
[ Next Day → ]
[ °F ]   °C
Weather ElementAverageHighLow
Temperature27.6 °C29.4 °C (11:00 am)25 °C (4:00 am)
Dewpoint25.3 °C26.1 °C (8:00 am)23.9 °C (5:00 pm)
Humidity86.7 %100 % (2:00 am)67 % (11:00 am)
Barometer1011.2 hPa1013.9 hPa (11:00 pm)1009.1 hPa (4:00 am)
Wind Speed13.4 km/h29.6 km/h (1:00 pm)
Weather ElementAverage
Visibility9.7 km
Wind DirectionS (182 °)

Weather ElementTotal
Precipitation---
Cooling Degree Days8.9 (Base 18.3)
Growing Degree Days17.2 (Base 10)
Averaged from 30 records on 15 October, 2013
WEATHER CONDITIONS BREAKOUT
WIND DIRECTION BREAKOUT
WEATHER BY HOUR - 15 OCTOBER, 2013
[ °F ]   °C
Local TimeTemperatureDewpointHumidityBarometerVisibilityWind DirectionWind SpeedGust SpeedPrecipitationEventsConditions
1:00 AM26 °C25 °C94 %1010.2 hPa10 kmWest (260°)5.6 km/hMostly Cloudy
2:00 AM26.1 °C25.6 °C97 %1010.5 hPa9.7 kmSE (130°)3.5 km/hHaze
2:00 AM26 °C26 °C100 %1010.2 hPa10 kmVariable3.7 km/hScattered Clouds
3:00 AM26 °C25 °C94 %1010.2 hPa10 kmVariable3.7 km/hPartly Cloudy
4:00 AM25 °C25 °C100 %1009.1 hPa10 kmVariable1.9 km/hPartly Cloudy
5:00 AM25 °C25 °C100 %1010.2 hPa10 kmCalmPartly Cloudy
6:00 AM25 °C25 °C100 %1010.2 hPa10 kmCalmPartly Cloudy
7:00 AM27 °C26 °C94 %1011.2 hPa10 kmESE (120°)3.7 km/hPartly Cloudy
8:00 AM28.3 °C26.1 °C84 %1011.9 hPa9.7 kmWest (260°)7.2 km/hHaze
8:00 AM28 °C26 °C89 %1011.2 hPa10 kmWest (260°)9.3 km/hScattered Clouds
9:00 AM29 °C25 °C79 %1012.2 hPa10 kmWest (270°)14.8 km/hScattered Clouds
10:00 AM29 °C26 °C84 %1012.2 hPa10 kmWest (270°)14.8 km/hScattered Clouds
11:00 AM29.4 °C24.4 °C67 %1012.2 hPa9.7 kmWest (260°)25.3 km/hHaze
11:00 AM29 °C24 °C74 %1012.2 hPa10 kmWest (260°)25.9 km/hMostly Cloudy
12:00 PM29 °C25 °C79 %1011.2 hPa10 kmWest (260°)22.2 km/hScattered Clouds
1:00 PM29 °C26 °C84 %1010.2 hPa10 kmWSW (250°)29.6 km/hScattered Clouds
2:00 PM29.4 °C25.6 °C75 %1009.8 hPa9.7 kmWest (260°)25.3 km/hHaze
2:00 PM29 °C26 °C84 %1009.1 hPa10 kmWest (260°)27.8 km/hScattered Clouds
3:00 PM29 °C25 °C79 %1010.2 hPa10 kmWest (260°)24.1 km/hScattered Clouds
4:00 PM29 °C24 °C74 %1009.1 hPa10 kmWSW (250°)24.1 km/hScattered Clouds
5:00 PM28.9 °C23.9 °C67 %1010.5 hPa9.7 kmWSW (250°)18 km/hHaze
5:00 PM29 °C24 °C74 %1010.2 hPa10 kmWSW (250°)18.5 km/hScattered Clouds
6:00 PM29 °C25 °C79 %1010.2 hPa10 kmWSW (240°)18.5 km/hMostly Cloudy
7:00 PM28 °C26 °C89 %1012.2 hPa10 kmWSW (250°)16.7 km/hScattered Clouds
8:00 PM27.8 °C25.6 °C85 %1012.9 hPa9.7 kmSW (230°)10.8 km/hPartly Cloudy
8:00 PM28 °C26 °C89 %1012.2 hPa10 kmSW (230°)13 km/hMostly Cloudy
9:00 PM27 °C26 °C94 %1012.2 hPa10 kmSSW (210°)7.4 km/hMostly Cloudy
10:00 PM27 °C26 °C94 %1013.2 hPa8 kmSE (130°)3.7 km/hRain-ThunderstormRain Showers
11:00 PM25 °C25 °C100 %1013.9 hPa6.4 kmNNE (20°)10.8 km/hRainLight Rain
11:00 PM25 °C25 °C100 %1013.2 hPa6 kmNNE (20°)9.3 km/hRainLight Rain
Hourly data recorded from RPLL, located 0 kilometers away from Quezon City, Philippines







STORIES FROM OUR PARTNERS